Change the Weather History Date:

Wednesday, June 6, 2007

  Actual Average Record
Temperature  
Mean Temperature 70 °F 68 °F  
Max Temperature 83 °F 80 °F 94 °F (1943)
Min Temperature 56 °F 57 °F 39 °F (1976)
Degree Days  
Heating Degree Days 0 1  
Month to date heating degree days 0 6  
Since 1 June heating degree days 6  
Since 1 July heating degree days 4022 4187  
Cooling Degree Days 5 4  
Month to date cooling degree days 28 24  
Year to date cooling degree days 71 82  
Since 1 June cooling degree days 24  
Growing Degree Days 18 (Base 50)    
Moisture  
Dew Point 53 °F    
Average Humidity 61    
Maximum Humidity 93    
Minimum Humidity 28    
Precipitation  
Precipitation T in 0.15 in 1.07 in (1916)
Month to date precipitation 0.09 0.87  
Year to date precipitation 11.91 19.12  
Snow  
Snow 0.00 in 0.00 in 0.00 in ()
Month to date snowfall 0.0 0.0  
Since 1 June snowfall 0.0  
Since 1 July snowfall 3.2 9.9  
Snow Depth -    
Sea Level Pressure  
Sea Level Pressure 29.94 in    
Wind  
Wind Speed 5 mph (NNW)    
Max Wind Speed 14 mph    
Max Gust Speed 16 mph    
Visibility 8 miles    
Events Fog    
T = Trace of Precipitation, MM = Missing Value Source: NWS Daily Summary

Daily Weather History Graph

Daily Weather History Graph

Search for Another Location

Airport or City:

Trip Planner

Search our weather history database for the weather conditions in past years. The results will help you decide how hot, cold, wet, or windy it might be!

Date:

Astronomy

Jun. 06, 2007 Rise Set
Actual Time 6:15 AM EDT 8:42 PM EDT
Civil Twilight 5:45 AM EDT 9:12 PM EDT
Nautical Twilight 5:08 AM EDT 9:49 PM EDT
Astronomical Twilight 4:28 AM EDT 10:29 PM EDT
Moon 12:44 AM EDT (6/6) 11:24 AM EDT (6/6)
Length of Visible Light 15h 27m
Length of Day
14h 27m
Waning Gibbous, 70% of the Moon is Illuminated
Jun 6
Waning Gibbous
Jun 8
Last Quarter
Jun 14
New
Jun 22
First Quarter
Jun 30
Full

Hourly Weather History & Observations

Time (EDT) Temp. Dew Point Humidity Pressure Visibility Wind Dir Wind Speed Gust Speed Precip Events Conditions
12:54 AM 62.1 °F 55.9 °F 80% 29.86 in 10.0 mi North 8.1 mph - 0.00 in   Overcast
1:54 AM 61.0 °F 55.9 °F 83% 29.86 in 10.0 mi Calm Calm - 0.00 in   Scattered Clouds
2:54 AM 62.1 °F 55.0 °F 78% 29.85 in 10.0 mi North 8.1 mph - N/A   Partly Cloudy
3:54 AM 59.0 °F 55.9 °F 90% 29.85 in 10.0 mi Calm Calm - N/A   Clear
4:54 AM 57.0 °F 54.0 °F 89% 29.86 in 10.0 mi Variable 3.5 mph - N/A   Partly Cloudy
5:54 AM 57.0 °F 55.0 °F 93% 29.88 in 10.0 mi NNW 6.9 mph - N/A   Clear
6:26 AM 55.4 °F 53.6 °F 94% 29.97 in 8.0 mi NNW 3.5 mph - N/A   Scattered Clouds
6:34 AM 57.2 °F 55.4 °F 94% 29.97 in 8.0 mi NNW 5.8 mph - N/A   Mostly Cloudy
6:54 AM 57.0 °F 55.0 °F 93% 29.92 in 0.5 mi NNW 5.8 mph - N/A Fog Fog
7:22 AM 57.2 °F 55.4 °F 94% 29.99 in 1.2 mi NNW 5.8 mph - N/A   Overcast
7:27 AM 57.2 °F 55.4 °F 94% 29.99 in 2.0 mi NNW 6.9 mph - N/A   Overcast
7:37 AM 57.2 °F 55.4 °F 94% 30.00 in 3.0 mi NNW 5.8 mph - N/A   Overcast
7:54 AM 60.1 °F 57.0 °F 90% 29.94 in 5.0 mi NW 5.8 mph - N/A   Overcast
8:06 AM 60.8 °F 57.2 °F 88% 30.01 in 6.0 mi NNW 6.9 mph - N/A   Mostly Cloudy
8:15 AM 60.8 °F 55.4 °F 82% 30.01 in 7.0 mi NNW 8.1 mph - N/A   Scattered Clouds
8:54 AM 64.0 °F 55.9 °F 75% 29.96 in 10.0 mi North 8.1 mph - N/A   Clear
9:54 AM 68.0 °F 55.9 °F 65% 29.97 in 10.0 mi North 5.8 mph - N/A   Clear
10:54 AM 73.0 °F 52.0 °F 48% 29.98 in 10.0 mi North 12.7 mph - N/A   Clear
11:54 AM 75.0 °F 52.0 °F 44% 29.96 in 10.0 mi Variable 3.5 mph - N/A   Clear
12:54 PM 75.9 °F 50.0 °F 40% 29.97 in 10.0 mi NNW 10.4 mph - N/A   Partly Cloudy
1:54 PM 78.1 °F 50.0 °F 37% 29.96 in 10.0 mi Variable 4.6 mph - N/A   Clear
2:54 PM 80.1 °F 50.0 °F 35% 29.94 in 10.0 mi NNE 9.2 mph - N/A   Clear
3:54 PM 82.0 °F 50.0 °F 33% 29.93 in 10.0 mi NW 8.1 mph - N/A   Clear
4:54 PM 82.9 °F 48.9 °F 31% 29.92 in 10.0 mi NW 9.2 mph - N/A   Clear
5:54 PM 82.9 °F 46.9 °F 28% 29.91 in 10.0 mi Calm Calm - N/A   Clear
6:54 PM 82.0 °F 48.9 °F 31% 29.91 in 10.0 mi West 3.5 mph - N/A   Clear
7:54 PM 78.1 °F 50.0 °F 37% 29.94 in 10.0 mi NW 5.8 mph - N/A   Clear
8:54 PM 73.0 °F 50.0 °F 44% 29.95 in 10.0 mi NNW 6.9 mph - N/A   Clear
9:54 PM 70.0 °F 51.1 °F 51% 29.97 in 10.0 mi NNW 4.6 mph - N/A   Partly Cloudy
10:54 PM 69.1 °F 51.1 °F 53% 29.99 in 10.0 mi Calm Calm - N/A   Clear
11:54 PM 64.0 °F 51.1 °F 63% 30.01 in 10.0 mi Calm Calm - N/A   Clear